Wind_Speed
23 23 23 23 22 22 22 23 23 23 24 24 25 25 26 26 27 27 27 27 27 26 26 26 25 25 26 27 28 30 31 32 33 34 35 36 36 36 37 37 37 36
26 26 26 25 24 24 24 24 24 24 25 25 26 27 27 27 27 27 27 27 27 26 26 26 25 25 25 26 27 29 30 31 31 33 35 36 37 38 38 38 38 39
27 28 28 28 26 25 25 24 24 25 26 26 27 27 27 27 27 27 27 27 27 26 26 26 26 26 25 26 27 28 29 30 31 31 33 36 37 39 39 38 39 39
28 29 30 30 29 27 26 26 26 27 27 26 26 26 26 26 27 27 28 28 28 27 27 27 27 27 27 27 28 28 29 30 31 31 33 34 36 38 39 39 39 40
29 30 30 30 29 28 27 27 27 27 27 26 25 24 24 25 26 27 28 29 29 29 29 28 28 28 28 29 29 30 30 30 31 32 33 34 34 37 39 39 40 40
29 30 29 28 27 27 27 27 28 28 27 26 24 24 24 25 26 27 28 29 29 30 30 30 30 30 30 31 31 31 31 31 31 32 34 34 33 35 37 39 40 41
30 30 29 27 26 27 27 28 28 28 26 25 24 24 24 25 26 27 27 29 30 30 31 31 31 32 32 33 33 32 32 32 32 32 34 34 33 34 35 38 40 41
31 31 29 28 27 27 28 28 28 28 26 25 24 24 25 26 27 28 28 29 30 30 31 31 31 32 33 33 34 34 33 32 32 32 33 34 34 34 34 36 38 40
32 32 30 29 28 28 28 28 28 27 25 25 24 24 25 26 28 29 30 30 30 30 30 30 30 31 32 33 34 34 34 33 33 33 33 34 34 34 33 34 37 39
32 32 30 30 30 29 28 28 27 26 25 24 25 25 26 27 28 29 30 31 30 30 30 31 31 31 32 33 33 33 34 34 34 34 34 34 34 34 33 34 35 37
32 32 31 31 31 30 29 28 26 25 24 24 25 26 26 27 28 29 29 30 30 30 31 31 32 33 33 33 32 32 34 35 34 35 36 35 34 34 33 33 34 36
33 33 33 32 31 30 29 28 27 26 25 25 26 26 27 27 27 28 28 29 30 30 31 31 33 34 34 34 32 32 33 35 36 36 37 37 35 33 32 33 33 34
34 34 33 32 30 30 29 28 28 26 26 26 26 27 27 26 26 27 27 28 30 30 31 31 33 33 34 34 33 33 33 35 36 36 36 36 35 34 32 33 33 33
35 34 31 30 30 30 30 29 28 27 26 27 27 27 27 26 26 27 28 28 29 30 31 31 32 33 33 34 35 34 34 34 35 36 36 37 37 35 34 33 33 33
35 32 30 29 30 31 31 30 29 28 27 28 28 27 26 26 27 28 28 29 29 30 31 31 32 32 33 34 35 35 34 34 34 35 36 37 37 37 35 33 33 33
33 30 30 30 31 32 32 31 30 29 28 28 28 27 26 26 27 28 28 29 29 29 30 31 32 32 33 34 35 34 34 34 34 34 35 36 38 38 36 34 33 32
30 29 29 30 32 32 32 31 30 29 30 29 27 26 26 26 27 27 28 28 29 29 29 30 31 32 33 34 34 34 34 34 34 33 33 35 36 37 37 35 34 33
29 29 29 31 32 32 31 30 30 30 30 28 26 26 26 26 26 27 27 28 29 29 29 30 31 32 33 34 34 34 34 34 34 34 34 34 35 36 36 35 34 33
29 29 30 31 31 31 30 29 29 30 29 27 26 26 25 25 25 26 26 27 27 28 28 30 31 32 34 35 35 35 35 35 35 35 35 34 34 34 35 34 33 33
29 29 30 31 30 29 28 28 29 29 28 27 26 25 24 24 24 24 25 25 26 27 27 28 29 31 32 33 34 35 35 35 36 36 36 35 34 33 33 33 33 33
29 29 30 29 29 28 27 28 29 28 27 26 25 24 24 23 23 23 23 24 25 25 26 26 27 29 30 31 32 33 34 35 36 37 37 35 33 32 32 31 31 31
28 29 29 28 27 26 26 28 28 26 25 24 23 23 23 22 22 22 22 22 23 23 23 23 24 26 28 29 31 32 32 33 35 36 37 36 34 33 31 31 30 29
27 27 27 26 25 25 26 26 26 25 24 23 22 21 21 22 21 21 21 21 22 23 23 22 22 24 27 28 29 30 30 32 33 34 34 34 34 33 32 31 30 29
26 26 25 23 24 25 25 25 24 23 23 22 22 21 21 21 21 21 21 21 22 23 22 20 20 23 25 26 26 26 27 28 29 29 29 30 30 30 31 31 31 30
26 25 22 22 23 24 24 23 22 22 21 21 21 21 20 20 21 21 22 23 24 24 22 21 22 24 24 24 23 23 23 23 24 24 24 24 24 24 26 28 30 30
25 23 21 21 22 22 22 21 20 20 20 20 20 20 20 20 21 22 23 24 25 24 23 24 25 24 23 22 21 21 21 21 21 21 20 20 20 20 20 22 25 26
Wind_Direction
313 314 315 315 311 308 307 306 305 303 302 302 301 301 299 297 295 293 291 290 288 287 285 283 280 276 273 271 269 268 266 264 262 260 259 257 254 252 251 252 253 254
312 314 316 315 311 308 307 305 305 304 303 303 301 299 297 295 292 290 289 288 288 288 287 286 284 282 280 277 274 271 269 267 265 263 261 259 257 255 252 252 253 254
310 313 314 313 309 307 306 306 306 305 305 304 301 299 296 294 291 290 289 288 288 288 288 288 287 286 284 282 280 277 274 271 267 264 262 261 260 258 256 254 253 253
310 311 313 312 310 309 309 309 309 308 307 305 302 298 295 293 292 291 291 291 292 291 291 291 290 290 289 287 285 282 279 275 271 267 263 261 260 260 259 256 254 253
310 311 311 311 310 310 310 310 310 309 308 305 300 297 294 292 292 292 292 293 294 294 294 294 294 293 293 291 289 286 283 279 274 270 266 262 259 258 258 257 255 253
307 309 310 309 309 310 310 310 310 309 307 303 299 296 294 293 293 293 294 294 295 295 295 296 295 295 294 293 291 288 286 282 276 270 268 266 261 257 257 256 255 254
306 311 312 310 310 311 311 312 311 309 305 302 300 299 297 297 296 295 295 295 295 295 295 294 294 294 294 292 291 289 286 283 277 271 269 269 265 260 257 255 255 254
310 313 313 312 313 313 313 313 311 308 305 302 301 300 300 300 299 298 297 296 295 293 292 291 290 289 289 289 290 288 285 282 278 274 272 271 269 264 261 258 255 254
312 313 313 313 314 314 314 312 310 307 304 303 302 302 301 302 301 301 300 298 296 294 292 289 288 287 287 287 288 286 283 280 278 277 276 274 271 267 264 261 257 255
310 312 314 313 313 313 313 311 309 306 304 303 302 302 302 302 302 301 300 298 296 294 293 291 289 288 287 287 287 284 281 277 276 277 277 275 271 268 265 263 260 257
310 313 313 313 312 312 312 311 309 307 305 304 303 302 303 302 301 299 298 296 295 294 293 292 291 290 289 288 287 284 280 275 273 273 274 273 271 269 268 267 264 260
312 314 313 313 312 311 311 312 310 309 308 306 304 304 303 301 299 298 297 296 294 294 293 292 292 291 290 290 287 283 279 275 272 271 272 274 275 274 273 272 269 266
312 313 313 312 311 311 312 314 313 310 308 307 305 305 303 301 299 297 297 295 294 293 292 291 291 291 291 290 287 283 279 277 275 273 272 273 275 275 273 271 270 268
312 312 311 311 312 313 313 315 313 310 309 308 307 306 305 304 303 300 298 296 294 293 291 291 290 290 289 288 286 283 280 278 277 275 273 271 270 271 271 271 270 269
312 311 311 313 313 313 315 316 313 311 311 309 307 308 308 305 303 300 298 296 294 293 292 291 290 289 288 286 284 284 283 281 279 277 275 272 270 269 269 269 269 269
311 310 313 314 312 313 315 314 313 313 311 309 309 310 308 304 302 299 297 295 294 293 291 290 290 289 287 285 285 285 284 282 280 278 276 274 272 270 268 267 268 268
309 310 312 311 310 313 313 313 313 312 310 310 312 310 307 304 302 299 298 297 296 295 293 292 291 290 288 287 287 286 285 284 282 279 277 275 273 272 270 268 268 268
308 309 309 307 310 312 311 311 312 310 310 313 313 309 307 305 302 300 301 300 300 299 298 297 296 294 292 291 291 289 287 286 285 282 279 276 274 273 272 271 270 268
308 307 306 306 309 310 310 311 310 309 312 314 312 308 306 304 303 303 303 303 302 302 301 301 300 298 297 296 295 294 292 291 289 286 283 280 278 276 275 274 273 270
305 304 305 307 309 309 309 309 309 310 313 313 310 308 306 305 305 305 304 304 304 304 304 304 302 300 299 298 297 296 296 295 292 289 286 284 283 281 279 277 275 272
303 303 306 308 308 308 309 309 310 312 313 311 310 308 308 308 308 307 306 305 305 305 306 306 304 301 299 297 296 295 294 293 292 290 289 288 287 286 283 279 276 273
303 304 306 307 306 307 308 309 310 312 311 310 310 312 313 313 312 309 308 308 308 309 309 308 307 304 302 299 297 296 295 293 291 290 290 290 288 286 283 279 275 272
304 305 305 306 306 307 308 309 310 310 310 310 313 316 317 316 315 314 314 315 316 315 312 310 310 308 305 302 299 298 297 297 296 295 294 291 288 285 282 279 277 274
306 305 305 307 308 309 309 310 309 309 310 313 317 320 320 319 320 320 320 322 322 321 317 314 316 316 311 305 303 303 303 304 304 305 303 299 293 287 283 280 277 275
307 306 307 308 309 310 309 310 309 309 312 317 321 323 323 325 326 326 326 327 326 326 326 326 327 326 320 313 310 310 311 312 313 314 315 312 305 296 288 283 280 277
308 308 309 310 311 311 309 307 308 310 315 321 325 326 329 331 331 330 330 329 329 329 331 332 331 330 325 321 318 317 319 320 319 320 322 320 314 308 300 292 287 283
Height
3098 3097 3097 3096 3095 3094 3093 3093 3092 3091 3090 3090 3089 3088 3087 3087 3086 3086 3085 3085 3085 3085 3085 3085 3085 3086 3086 3086 3086 3085 3085 3086 3087 3088 3089 3089 3090 3091 3092 3092 3093 3093
3095 3095 3094 3094 3093 3092 3091 3090 3089 3088 3087 3086 3085 3084 3084 3083 3083 3082 3082 3081 3081 3081 3081 3081 3081 3081 3081 3081 3081 3081 3081 3081 3082 3083 3083 3084 3084 3085 3086 3087 3088 3088
3093 3093 3092 3091 3090 3089 3088 3087 3086 3085 3083 3082 3081 3080 3079 3079 3078 3078 3078 3077 3077 3077 3077 3077 3076 3076 3076 3076 3076 3076 3076 3076 3077 3077 3077 3078 3079 3079 3081 3082 3082 3083
3092 3091 3089 3088 3087 3086 3084 3083 3082 3081 3080 3079 3078 3077 3076 3075 3074 3074 3073 3073 3073 3073 3073 3072 3072 3072 3072 3072 3071 3071 3071 3071 3071 3072 3071 3072 3073 3074 3075 3076 3076 3077
3089 3088 3087 3085 3083 3082 3081 3080 3078 3077 3076 3075 3074 3073 3072 3072 3071 3070 3069 3068 3068 3067 3067 3067 3067 3067 3067 3066 3066 3066 3066 3066 3066 3066 3066 3066 3068 3068 3069 3069 3070 3071
3087 3086 3085 3083 3081 3080 3078 3077 3075 3074 3072 3071 3071 3070 3069 3068 3067 3067 3066 3065 3064 3063 3062 3062 3062 3062 3062 3061 3061 3060 3060 3060 3061 3060 3060 3061 3062 3063 3063 3063 3064 3065
3084 3083 3081 3080 3079 3077 3075 3074 3072 3071 3069 3068 3067 3066 3065 3065 3064 3063 3062 3061 3060 3059 3058 3058 3057 3057 3056 3056 3056 3055 3055 3055 3055 3055 3055 3055 3056 3057 3057 3057 3058 3058
3080 3079 3078 3076 3075 3074 3072 3070 3069 3067 3066 3065 3064 3063 3062 3061 3060 3059 3058 3057 3057 3056 3055 3054 3054 3053 3052 3051 3051 3050 3050 3050 3050 3050 3050 3049 3050 3050 3051 3052 3052 3052
3077 3076 3074 3073 3071 3070 3069 3067 3066 3065 3063 3062 3061 3060 3059 3058 3056 3055 3054 3053 3052 3051 3051 3050 3050 3049 3048 3047 3046 3045 3045 3045 3045 3045 3044 3044 3044 3044 3045 3045 3045 3046
3074 3073 3071 3070 3068 3067 3066 3065 3063 3062 3061 3059 3058 3056 3055 3054 3053 3051 3050 3049 3048 3047 3046 3045 3045 3044 3043 3042 3041 3041 3040 3040 3040 3039 3039 3038 3038 3038 3038 3039 3039 3040
3071 3069 3068 3066 3065 3063 3062 3061 3060 3059 3058 3056 3055 3053 3052 3051 3049 3048 3046 3045 3044 3043 3042 3041 3040 3039 3038 3037 3037 3036 3035 3034 3034 3033 3033 3032 3032 3033 3033 3034 3035 3035
3067 3066 3064 3063 3061 3060 3059 3058 3056 3055 3054 3053 3051 3050 3049 3047 3046 3044 3043 3042 3040 3039 3038 3037 3035 3034 3033 3032 3032 3030 3029 3028 3027 3027 3027 3027 3028 3029 3029 3029 3030 3030
3064 3062 3061 3059 3058 3056 3055 3054 3053 3052 3051 3050 3048 3047 3045 3044 3042 3041 3040 3038 3037 3035 3034 3033 3031 3030 3028 3027 3026 3025 3023 3022 3021 3022 3022 3023 3023 3024 3024 3024 3025 3025
3060 3058 3057 3055 3054 3053 3052 3051 3050 3049 3048 3047 3045 3043 3042 3040 3039 3037 3036 3034 3033 3031 3030 3029 3027 3026 3024 3022 3020 3019 3018 3017 3017 3017 3017 3017 3018 3019 3020 3020 3020 3020
3056 3055 3054 3052 3050 3049 3048 3048 3047 3046 3045 3043 3041 3040 3038 3036 3035 3033 3032 3030 3029 3027 3025 3024 3023 3022 3020 3017 3015 3014 3014 3013 3013 3012 3012 3012 3012 3013 3015 3015 3015 3016
3053 3052 3050 3049 3047 3046 3045 3044 3043 3042 3041 3040 3038 3036 3034 3033 3031 3030 3028 3026 3025 3023 3021 3020 3018 3017 3015 3013 3011 3010 3010 3009 3009 3008 3008 3007 3007 3008 3009 3010 3011 3011
3051 3049 3048 3046 3044 3043 3042 3041 3040 3039 3037 3036 3034 3033 3031 3029 3028 3026 3024 3022 3021 3019 3018 3016 3014 3012 3010 3008 3007 3006 3005 3005 3004 3004 3003 3003 3002 3002 3003 3004 3005 3006
3048 3047 3045 3043 3042 3041 3039 3038 3037 3035 3034 3032 3031 3029 3027 3026 3024 3023 3021 3019 3017 3015 3014 3012 3010 3008 3006 3004 3003 3002 3001 3000 3000 2999 2999 2998 2997 2997 2997 2998 2999 3000
3045 3044 3042 3041 3039 3038 3037 3036 3034 3032 3030 3029 3027 3026 3024 3023 3021 3019 3017 3016 3014 3012 3010 3009 3006 3004 3002 3000 2998 2997 2996 2995 2995 2994 2993 2993 2993 2992 2992 2992 2993 2994
3043 3041 3040 3038 3037 3036 3034 3033 3031 3029 3028 3026 3024 3023 3022 3020 3018 3016 3015 3013 3011 3009 3007 3005 3003 3001 2999 2996 2995 2993 2991 2990 2989 2988 2987 2987 2987 2987 2987 2987 2987 2987
3040 3039 3037 3036 3035 3033 3032 3030 3028 3026 3025 3023 3022 3020 3019 3017 3015 3014 3012 3010 3008 3006 3004 3003 3000 2997 2995 2993 2991 2989 2988 2986 2984 2982 2981 2981 2982 2983 2982 2982 2981 2981
3037 3036 3035 3034 3033 3031 3029 3027 3025 3024 3022 3021 3020 3018 3016 3014 3012 3011 3009 3008 3006 3003 3002 3000 2997 2994 2992 2989 2987 2986 2984 2982 2980 2978 2977 2977 2977 2977 2977 2976 2976 2976
3035 3034 3033 3032 3030 3029 3027 3025 3023 3021 3020 3019 3017 3015 3013 3012 3010 3008 3006 3004 3002 3000 2998 2997 2994 2992 2989 2986 2984 2982 2980 2978 2976 2975 2974 2973 2972 2972 2971 2971 2971 2971
3033 3032 3031 3029 3028 3026 3024 3023 3021 3019 3018 3016 3015 3013 3011 3009 3007 3005 3003 3001 2999 2997 2995 2993 2992 2989 2986 2983 2981 2979 2977 2975 2973 2972 2970 2968 2967 2967 2966 2966 2966 2966
3030 3029 3029 3027 3025 3024 3022 3020 3019 3018 3016 3014 3012 3011 3009 3007 3005 3003 3000 2998 2996 2994 2992 2990 2988 2986 2983 2980 2978 2976 2975 2973 2971 2969 2967 2965 2964 2963 2962 2961 2961 2962
3028 3027 3026 3025 3023 3022 3020 3019 3017 3016 3014 3012 3011 3009 3007 3005 3003 3000 2998 2996 2993 2991 2989 2988 2986 2984 2981 2978 2976 2974 2973 2971 2969 2967 2966 2964 2961 2960 2959 2958 2957 2957